Weather History for KEWB - October, 2011

Change the Weather History Date:

Sunday, October 16, 2011

  Actual Average Record
Temperature  
Mean Temperature 60 °F -  
Max Temperature 64 °F 64 °F 85 °F (1963)
Min Temperature 55 °F 48 °F 30 °F (2006)
Degree Days  
Heating Degree Days 6    
Growing Degree Days 10 (Base 50)    
Moisture  
Dew Point 40 °F    
Average Humidity 48    
Maximum Humidity 69    
Minimum Humidity 37    
Precipitation  
Precipitation 0.00 in - - ()
Sea Level Pressure  
Sea Level Pressure 29.76 in    
Wind  
Wind Speed 12 mph (WSW)    
Max Wind Speed 18 mph    
Max Gust Speed 28 mph    
Visibility 10 miles    
Events      
Averages and records for this station are not official NWS values.
T = Trace of Precipitation, MM = Missing Value Source: NWS Daily Summary

Daily Weather History Graph

Daily Weather History Graph

Search for Another Location

Airport or City:

Trip Planner

Search our weather history database for the weather conditions in past years. The results will help you decide how hot, cold, wet, or windy it might be!

Date:

Astronomy

Oct. 16, 2011 Rise Set
Actual Time 6:56 AM EDT 6:01 PM EDT
Civil Twilight 6:28 AM EDT 6:29 PM EDT
Nautical Twilight 5:56 AM EDT 7:01 PM EDT
Astronomical Twilight 5:24 AM EDT 7:33 PM EDT
Moon 8:41 PM EDT (10/16) 11:14 AM EDT (10/16)
Length of Visible Light 12h 00m
Length of Day
11h 04m
Waning Gibbous, 82% of the Moon is Illuminated
Oct 16
Waning Gibbous
Oct 19
Last Quarter
Oct 26
New
Nov 2
First Quarter
Nov 10
Full

Hourly Weather History & Observations

Time (EDT) Temp. Dew Point Humidity Pressure Visibility Wind Dir Wind Speed Gust Speed Precip Events Conditions
12:53 AM 57.9 °F 36.0 °F 44% 29.72 in 10.0 mi SW 10.4 mph 19.6 mph N/A   Clear
1:53 AM 59.0 °F 34.0 °F 39% 29.72 in 10.0 mi WSW 15.0 mph 25.3 mph N/A   Clear
2:53 AM 57.0 °F 35.1 °F 44% 29.72 in 10.0 mi WSW 10.4 mph - N/A   Clear
3:53 AM 57.0 °F 35.1 °F 44% 29.73 in 10.0 mi WSW 12.7 mph 19.6 mph N/A   Clear
4:53 AM 55.9 °F 36.0 °F 47% 29.74 in 10.0 mi WSW 10.4 mph 17.3 mph N/A   Clear
5:53 AM 55.0 °F 37.0 °F 51% 29.76 in 10.0 mi SW 8.1 mph - N/A   Clear
6:53 AM 55.4 °F 37.4 °F 51% 29.77 in 10.0 mi WSW 10.4 mph - N/A   Clear
7:53 AM 57.0 °F 37.9 °F 49% 29.80 in 10.0 mi West 9.2 mph 19.6 mph N/A   Overcast
8:53 AM 59.0 °F 37.9 °F 46% 29.82 in 10.0 mi West 10.4 mph - N/A   Clear
9:53 AM 62.1 °F 39.0 °F 43% 29.82 in 10.0 mi West 12.7 mph 19.6 mph N/A   Clear
10:53 AM 63.0 °F 37.9 °F 40% 29.81 in 10.0 mi WSW 18.4 mph 25.3 mph N/A   Clear
11:53 AM 63.0 °F 37.0 °F 38% 29.79 in 10.0 mi West 16.1 mph 24.2 mph N/A   Partly Cloudy
12:53 PM 64.0 °F 37.0 °F 37% 29.78 in 10.0 mi WSW 18.4 mph 27.6 mph N/A   Partly Cloudy
1:53 PM 64.9 °F 37.9 °F 37% 29.76 in 10.0 mi WSW 18.4 mph 27.6 mph N/A   Partly Cloudy
2:53 PM 64.9 °F 39.0 °F 39% 29.76 in 10.0 mi WSW 16.1 mph 20.7 mph N/A   Scattered Clouds
3:53 PM 62.1 °F 39.9 °F 44% 29.77 in 10.0 mi WSW 12.7 mph 20.7 mph N/A   Partly Cloudy
4:53 PM 61.0 °F 41.0 °F 48% 29.75 in 10.0 mi WSW 11.5 mph - N/A   Scattered Clouds
5:53 PM 59.0 °F 41.0 °F 51% 29.74 in 10.0 mi SW 8.1 mph - N/A   Clear
6:53 PM 57.9 °F 41.0 °F 53% 29.75 in 10.0 mi SW 6.9 mph - N/A   Scattered Clouds
7:53 PM 57.0 °F 46.9 °F 69% 29.74 in 10.0 mi SSW 6.9 mph - N/A   Scattered Clouds
8:53 PM 62.1 °F 48.0 °F 60% 29.75 in 10.0 mi SW 11.5 mph - N/A   Scattered Clouds
9:53 PM 63.0 °F 52.0 °F 67% 29.73 in 10.0 mi SSW 18.4 mph 21.9 mph N/A   Overcast
10:53 PM 63.0 °F 51.1 °F 65% 29.72 in 10.0 mi SW 17.3 mph 24.2 mph N/A   Overcast
11:53 PM 64.0 °F 48.0 °F 56% 29.70 in 10.0 mi SW 16.1 mph 26.5 mph N/A   Scattered Clouds